This demonstration page uses our WeatherBlox Daily Observations layout. Learn more.

Left ArrowRight Arrow

Hourly Observations for October 18, 2018

Temp ( °F °C ) Dew Point ( °F °C ) Humidity (%) Winds ( mph kmh ) Pressure ( in mb ) Visibility ( mi km ) Precip ( " mm )
12:57 am 00:57 Clear 47 8.3 37 2.8 69 69 SSW 9 15 30.43 1031 10 16 0.00 0.00
1:57 am 01:57 Clear 46 7.8 37 2.8 71 71 SW 9 15 30.43 1030 10 16 0.00 0.00
2:57 am 02:57 Clear 46 7.8 37 2.8 71 71 SSW 10 17 30.42 1030 10 16 0.00 0.00
3:57 am 03:57 Clear 45 7.2 37 2.8 74 74 SSW 9 15 30.41 1030 10 16 0.00 0.00
4:57 am 04:57 Clear 46 7.8 37 2.8 71 71 SW 8 13 30.40 1029 10 16 0.00 0.00
5:57 am 05:57 Clear 45 7.2 38 3.3 77 77 SSW 7 11 30.40 1030 10 16 0.00 0.00
6:57 am 06:57 Clear 46 7.8 39 3.9 77 77 SSW 9 15 30.41 1030 10 16 0.00 0.00
7:57 am 07:57 Sunny 48 8.9 40 4.4 74 74 SSW 10 17 30.41 1030 10 16 0.00 0.00
8:57 am 08:57 Sunny 51 10.6 41 5 69 69 SW 12 19 30.41 1030 10 16 0.00 0.00
9:57 am 09:57 Sunny 56 13.3 42 5.6 60 60 SSW 13 20 30.40 1030 10 16 0.00 0.00
10:57 am 10:57 Sunny 61 16.1 43 6.1 52 52 SSW 23 37 30.38 1029 10 16 0.00 0.00
11:57 am 11:57 Sunny 62 16.7 43 6.1 50 50 SSW 18 30 30.36 1028 10 16 0.00 0.00
12:57 pm 12:57 Sunny 64 17.8 43 6.1 46 46 SSW 24 39 30.33 1027 10 16 0.00 0.00
1:57 pm 13:57 Mostly Sunny 64 17.8 43 6.1 46 46 SSW 25 41 30.29 1026 10 16 0.00 0.00
2:57 pm 14:57 Sunny 67 19.4 41 5 39 39 SSW 25 41 30.25 1025 10 16 0.00 0.00
3:57 pm 15:57 Sunny 65 18.3 42 5.6 43 43 S 26 43 30.24 1024 10 16 0.00 0.00
4:57 pm 16:57 Mostly Cloudy with Light Rain 62 16.7 43 6.1 50 50 SSW 14 22 30.24 1024 10 16 0.00 0.03
5:57 pm 17:57 Sunny 62 16.7 41 5 46 46 SSW 20 31 30.21 1023 10 16 0.00 0.03
6:57 pm 18:57 Cloudy 61 16.1 40 4.4 46 46 S 16 26 30.19 1022 10 16 0.00 0.00
7:57 pm 19:57 Cloudy 58 14.4 41 5 53 53 S 12 19 30.20 1023 10 16 0.00 0.00
8:57 pm 20:57 Cloudy 56 13.3 41 5 57 57 SSW 10 17 30.18 1022 10 16 0.00 0.00
9:57 pm 21:57 Cloudy 57 13.9 41 5 55 55 S 18 30 30.15 1021 10 16 0.00 0.00
10:57 pm 22:57 Cloudy 56 13.3 41 5 57 57 SSW 17 28 30.14 1021 10 16 0.00 0.00
11:57 pm 23:57 Cloudy with Light Rain 53 11.7 45 7.2 74 74 SSW 15 24 30.14 1021 10 16 0.00 0.03

Powered by AerisWeather